World > North America > United States > Illinois > Deering

Hourly Deering, IL Regional Weather

Feedback E-mail the Weather

Quick WX

Deering, IL Weather Maps

°F °C°F °C
Deering Weather Map
UTC Time: 8/17/2022, 01:18
Your Time:

Deering, IL Regional Weather

Expires:202208170200;;168399
ASUS43 KLOT 170110
RWRIL 

ILLINOIS REGIONAL WEATHER ROUNDUP
NATIONAL WEATHER SERVICE CHICAGO/ROMEOVILLE IL
800 PM CDT TUE AUG 16 2022

NOTE: "FAIR" INDICATES FEW OR NO CLOUDS BELOW 12,000 FEET WITH NO
SIGNIFICANT WEATHER AND/OR OBSTRUCTIONS TO VISIBILITY.

* THESE STATIONS ARE NOT UNDER NWS QUALITY CONTROL. THEY ALSO MAY NOT
  REPORT WEATHER SUCH AS PRECIPITATION OR FOG.


ILZ064>066-069>071-074>076-080>082-084>086-088>090-092>094-170200-
SOUTH-CENTRAL ILLINOIS
  
CITY           SKY/WX    TMP DP  RH WIND       PRES   REMARKS
CARBONDALE     CLEAR     70  68  93 CALM      30.02R                  
CAIRO*         CLOUDY    71  70  96 CALM      30.02R                  
EFFINGHAM*     CLEAR     71  65  81 CALM      30.04R                  
MARION         CLEAR     69  69 100 CALM      30.02R                  
MT. VERNON     CLEAR     69  67  93 CALM      30.01R                  
CENTRALIA*     CLEAR     73  65  76 CALM      30.01R                  
SALEM*         CLEAR     71  68  89 CALM      30.02R                  
METROPOLIS*    CLOUDY    71  70  96 CALM      30.01R                  
$$


SKY/WX - Weather  TMP - Temperature  DP - Dew Point  RH - Humidity
WIND - Wind Direction/Speed PRES - Barometric Pressure VSB - Visibility
WCI - Wind Chill Index E13G22 Wind - East Wind 13 mph/Gusts of 22 mph

Trending Headlines

Deering Radar Loop



Deering Quick Facts


National Two Day Weather Forecast


E-mail the Deering Weather Forecast

Voice your opinion or tell us about page issues...